Reflectivity
-20 -20 -20 -20 -20 -20 -20 -20 -20 -20 -20 -20 -20 -20 -20 -20 -20 -17 -20 -18 -20 -20 -20 -20 -20 -20 -20 -20 -20 -20 -20 -20 -20 -20 -20 -20 -20 -20 -20 -20 -20 -20 -20 -20
-20 -20 -20 -20 -20 -20 -20 -20 -20 -20 -20 -20 -20 -20 -20 -20 -20 -20 -20 -20 -20 -20 -20 -20 -20 -20 -20 -20 -20 -20 -20 -20 -20 -20 -20 -20 -20 -20 -20 -20 -20 -20 -20 -20
-20 -20 -20 -20 -20 -20 -20 -20 -20 -20 -20 -20 -20 -20 -20 -20 -15 0 -19 -12 -20 -20 -20 -20 -20 -20 -20 -20 -20 -20 -20 -20 -20 -20 -20 -20 -20 -20 -20 -20 -20 -20 -20 -20
-20 -20 -20 -20 -20 -20 -20 -20 -20 -20 -20 -20 -20 -20 -20 -20 -10 5 -6 -20 -20 -20 -20 -20 -20 -20 -20 -20 -20 -20 -20 -20 -20 -20 -20 -20 -20 -20 -20 -20 -20 -20 -20 -20
-20 -20 -20 -20 -20 -20 -20 -20 -20 -20 -20 -20 -20 -20 -20 -20 -11 -6 -2 -20 -20 -20 -20 -20 -20 -20 -20 -20 -20 -20 -20 -20 -20 -20 -20 -20 -20 -20 -20 -20 -20 -20 -20 -19
-20 -20 -20 -20 -20 -20 -20 -20 -20 -20 -20 -20 -20 -20 -20 -20 -20 -20 -20 -20 -20 -20 -20 -20 -20 -20 -20 -20 -20 -20 -20 -20 -20 -20 -20 -20 -20 -20 -20 -20 -20 -20 -20 4
-20 -20 -20 -20 -20 -20 -20 -20 -20 -20 -20 -20 -20 -20 -20 -20 -20 -20 -20 -20 -20 -20 -20 -20 -20 -20 -20 -20 -20 -20 -20 -20 -20 -20 -20 -20 -20 -20 -20 -20 -20 -20 -20 -20
-20 -20 -20 -20 -20 -20 -20 -20 -20 -20 -20 -20 -20 -20 -20 -20 -20 -20 -20 -20 -20 -20 -20 -20 -20 -20 -20 -20 -20 -20 -20 -20 -20 -20 -20 -20 -20 -20 -20 -20 -20 -20 -20 -20
-20 -20 -20 -20 -20 -20 -20 -20 -20 -20 -20 -20 -20 -20 -20 -20 -20 -20 -20 -20 -20 -20 -20 -20 -20 -20 -20 -20 -20 -20 -20 -20 -20 -20 -20 -20 -20 -20 -20 -20 -20 -20 -20 -20
-20 -20 -20 -20 -20 -20 -20 -20 -20 -20 -20 -20 -20 -20 -20 -20 -20 -20 -20 -20 -20 -20 5 -20 -20 -20 -20 -20 -20 -20 -20 -20 -20 -20 -20 -20 -20 -20 -20 -20 -20 -20 -20 -20
-18 -20 -20 -20 -20 -20 -20 -20 -20 -20 -20 -20 -20 -20 -20 -20 -20 -20 -20 -20 -4 -20 -20 3 -17 -20 -20 -20 -20 -20 -20 -20 -20 -20 -20 -20 -20 -20 -20 -20 -20 -20 -20 -20
7 -19 -20 -20 -20 -20 -20 -20 -20 -20 -20 -20 -20 -20 -20 -20 -20 -5 -20 -20 -20 -20 -19 5 6 -20 -9 1 -20 -20 -20 -20 -20 -20 -20 -20 -20 -20 -20 -20 -20 -20 -20 -20
-13 -16 -20 -20 -20 -20 -20 -20 -20 -20 -20 -20 -20 -20 -20 -20 -20 -20 -10 1 -7 -20 -20 -18 -14 4 -17 -20 -20 -20 -20 -20 -20 -20 -20 -20 -20 -20 -20 -20 -20 -20 -20 -20
-20 -20 -20 -20 -20 -20 -20 -20 -20 -20 -20 -20 -20 -20 -20 -20 -20 -20 -20 -1 -4 -2 -20 -20 -19 -20 25 28 1 -20 -20 -16 -20 -20 -20 -20 -20 -20 -20 -20 -20 -20 -20 -20
-20 -20 -20 -20 -20 -20 -20 -20 -20 -20 -20 -20 -20 -20 -20 -20 -20 -20 -20 -20 -17 15 2 -5 -20 -18 -9 -11 7 -11 -20 -9 -18 -20 -20 -20 -20 -20 -20 -20 -20 -20 -20 -20
-20 -20 -20 -20 -20 -20 -20 -20 -20 -20 -20 -20 -20 -20 -20 -20 -20 -20 -20 -20 -20 -20 -14 9 -11 -1 4 5 26 18 19 -18 1 -20 -20 -20 -20 -20 -20 -20 -20 -20 -20 -20
-20 -20 -20 -20 -20 -20 -20 -20 -20 -20 -20 -20 -20 -20 -20 -20 -20 -20 -20 -20 -20 -20 -20 -20 8 12 -16 -20 -15 8 20 21 -5 22 -11 -8 -20 -20 -20 -20 -20 -20 -20 -20
-20 -20 -20 -20 -20 -20 -20 -20 -20 -20 -20 -20 -20 -20 -20 -20 -20 -20 -20 -20 -20 -20 -20 -20 -20 -20 12 11 6 -20 -20 14 26 28 25 13 -13 -20 -20 -20 -20 -20 -20 -20
-20 -20 -20 -20 -20 -20 -20 -20 -20 -20 -20 -20 -20 -20 -20 -20 -20 -20 -20 -20 -20 -20 -20 -20 -20 -20 -20 -19 4 12 1 -20 5 27 28 13 -20 -20 -20 -20 -20 -20 -20 -20
-20 -20 -20 -20 -20 -20 -20 -20 -20 -20 -20 -20 -20 -20 -20 -20 -20 -20 -20 -20 -20 -20 -20 -20 -20 -20 -20 -20 -20 -20 -18 -2 -20 -17 24 -20 -16 -20 9 -20 -20 -20 -20 -20
-20 -20 -20 -20 -20 -20 -20 -20 -20 -20 -20 -20 -20 -20 -20 -20 -20 -20 -20 -20 -20 -20 -20 -20 -20 -20 -20 -20 -20 -20 -19 5 10 -20 13 37 1 -20 -20 -17 12 9 8 -17
-20 -20 -20 -20 -20 -20 -20 -20 -20 -20 -20 -20 -20 -20 -20 -20 -20 -20 -20 -20 -20 -20 -20 -20 -20 -20 -20 -20 -20 -20 -20 -18 5 2 -20 -16 11 16 -9 -20 -20 10 14 16
-20 -20 -20 -20 -20 -20 -20 -20 -20 -20 -20 -20 -20 -20 -20 -20 -20 -20 -20 -20 -20 -20 -20 -20 -20 -20 -20 -20 -20 -20 -20 -20 -19 14 -19 -20 -20 2 21 -20 -20 -20 8 15
-20 -20 -20 -20 -20 -20 -20 -20 -20 -20 -20 -20 -20 -20 -20 -20 -20 -20 -20 -18 -13 -20 -18 -12 -3 -16 -20 -20 -20 -20 -20 -20 -20 -20 -20 -20 -20 -16 13 -17 -20 -20 -20 -1
-20 -20 -20 -20 -20 -20 -20 -20 -20 -20 -20 -20 -20 -20 -20 -20 -20 -16 -7 -19 -20 -20 -20 -19 -10 -1 -4 -16 -20 -20 -20 -20 -20 -20 -10 -16 -20 -16 -20 -20 -16 -15 -9 -16
-20 -20 -20 -20 -20 -20 -20 -20 -20 -20 -20 -20 -20 -20 -20 -19 -20 -20 -2 -20 -20 -20 -12 -1 -7 5 -1 -1 -20 -20 -20 -7 5 -20 -20 -2 -19 -20 -20 -20 -20 -16 -5 -16
Wind_Speed
7 9 15 15 8 4 3 3 3 2 2 2 3 6 6 13 14 16 18 20 20 20 18 17 15 15 13 13 13 14 14 12 9 8 7 6 6 5 4 4 5 4 4 4
7 16 9 10 8 4 4 3 2 1 4 3 3 6 3 11 15 16 19 20 20 19 19 17 17 16 16 16 15 14 14 13 11 8 6 4 5 3 3 4 5 4 5 5
9 4 12 12 9 8 6 6 4 0 3 2 1 3 1 4 8 13 15 18 18 20 22 19 18 18 17 16 16 16 16 15 13 10 6 3 4 2 4 5 5 5 5 5
5 6 15 14 12 8 8 7 5 3 2 3 3 1 2 5 10 12 15 18 19 21 20 19 19 18 18 18 17 16 15 15 13 13 10 10 8 6 5 6 5 5 6 6
6 10 16 15 11 10 4 7 4 3 2 2 4 5 5 3 2 10 13 16 21 21 22 22 22 21 20 17 16 16 15 14 13 13 11 9 9 7 5 5 7 6 6 6
5 3 11 12 8 10 11 7 5 3 2 5 5 5 5 6 7 8 10 17 19 21 21 21 21 20 18 17 16 15 15 15 14 14 13 12 11 9 6 6 6 6 6 5
4 5 2 4 9 6 9 10 5 6 6 5 2 6 8 7 8 10 14 15 21 20 20 20 22 20 19 18 16 14 15 15 16 15 15 14 13 12 11 9 7 7 6 5
9 8 1 5 3 6 12 13 5 8 9 9 3 7 8 10 9 12 12 7 12 19 20 21 22 21 20 19 18 17 16 16 16 16 16 13 14 10 10 10 8 7 7 7
6 4 4 11 4 3 7 9 1 5 2 8 4 3 6 15 18 19 19 13 5 14 18 20 20 20 20 19 19 18 17 16 17 18 14 14 13 13 11 10 9 7 7 6
3 6 6 5 3 11 2 4 8 3 8 9 4 4 6 16 18 19 20 20 10 8 13 15 17 17 17 18 18 18 18 18 19 18 16 14 15 14 12 10 11 10 8 7
2 2 4 1 8 6 2 4 2 1 3 5 8 6 7 10 12 14 17 18 19 12 5 9 10 12 14 15 16 17 16 16 16 16 15 15 14 15 14 12 12 11 9 8
4 5 5 5 2 4 8 4 2 7 7 2 2 7 8 10 12 13 16 18 19 19 18 14 3 3 10 11 12 14 15 15 15 14 14 16 15 14 15 14 14 13 12 10
4 3 6 4 5 2 4 6 4 2 1 2 6 7 9 11 14 15 16 16 16 19 21 18 18 16 13 3 5 10 13 14 12 11 12 12 15 15 16 15 14 13 13 12
1 5 4 1 5 3 3 5 7 4 2 7 4 12 8 11 12 13 14 15 15 15 16 16 17 15 13 13 13 9 6 10 12 14 13 14 13 14 16 15 14 14 13 13
5 5 4 7 5 2 3 1 4 5 4 3 10 9 6 8 9 9 10 12 15 15 17 16 15 14 13 14 14 13 11 8 11 13 15 17 16 15 13 13 14 15 14 13
4 5 4 3 4 3 3 4 2 0 1 3 5 7 3 5 4 7 10 11 13 15 16 15 15 15 14 13 13 14 14 12 10 12 16 14 14 14 15 15 13 14 15 15
4 5 3 4 3 2 6 1 2 4 5 3 5 6 6 5 9 10 10 8 12 14 16 16 14 14 14 14 13 13 13 13 12 10 12 14 14 14 15 15 14 15 15 14
5 5 2 5 4 5 6 3 2 4 7 5 4 6 7 8 12 14 5 6 11 16 16 16 15 15 14 14 13 13 13 12 11 9 7 11 14 15 14 15 15 15 14 14
4 4 4 4 5 2 3 1 2 1 5 5 4 8 8 12 12 2 6 11 15 16 16 14 14 16 17 15 14 14 14 12 11 11 10 8 11 13 14 16 15 14 13 14
5 4 1 4 4 6 6 5 1 2 5 3 3 6 10 11 6 3 10 21 21 19 17 17 17 16 15 15 15 13 13 13 12 11 13 10 7 10 13 14 14 13 12 14
2 3 3 3 3 1 6 4 4 4 6 2 2 4 6 6 7 16 19 18 16 17 19 19 18 15 14 14 15 14 14 13 13 15 11 12 11 8 8 9 11 13 13 13
4 5 4 2 3 6 10 6 5 5 5 3 1 3 5 9 13 16 17 17 17 18 18 17 17 18 15 14 14 15 15 15 15 15 14 13 11 12 7 7 8 11 12 13
4 3 3 6 3 2 8 2 4 4 4 2 1 4 7 9 13 16 16 18 17 18 16 15 16 16 18 14 13 16 16 14 17 17 16 13 12 13 12 9 8 8 7 11
5 5 3 2 7 11 9 7 4 6 5 5 4 5 7 8 13 17 15 16 17 17 17 18 18 18 17 17 16 17 17 16 14 18 17 15 13 13 11 9 8 8 11 9
2 9 7 6 7 4 9 11 8 10 8 8 9 9 9 9 12 13 14 15 15 13 13 15 17 18 19 17 19 18 19 18 17 14 16 12 13 10 11 10 10 9 9 11
9 8 7 6 7 3 4 9 11 11 11 10 8 8 9 10 11 12 12 10 11 14 13 14 16 16 18 19 20 20 18 17 17 16 13 9 10 9 9 11 10 14 17 16
Wind_Direction
169 184 199 188 191 93 85 138 144 106 133 268 269 280 211 182 187 185 188 195 192 193 188 190 191 190 187 186 186 191 183 184 185 183 193 195 208 209 212 218 200 181 177 165
160 213 182 179 201 214 203 178 192 307 95 240 303 307 358 193 196 188 190 192 194 194 190 195 193 191 189 188 192 194 189 184 192 187 193 204 190 211 218 181 180 177 164 166
194 198 177 182 186 189 193 208 170 176 328 88 307 221 102 171 194 193 197 197 195 197 195 194 197 195 196 194 195 195 196 188 187 190 183 157 164 147 178 179 184 179 164 155
211 184 173 182 189 193 196 199 184 191 257 189 319 209 195 180 203 202 196 198 197 196 202 194 195 195 200 200 199 202 197 195 189 184 188 201 206 192 197 176 181 171 172 159
153 175 182 189 188 187 195 162 191 182 214 276 183 240 78 352 220 230 216 206 205 199 198 196 196 195 198 203 201 201 200 198 197 192 193 199 214 203 183 177 177 179 175 179
141 173 185 195 177 182 145 116 77 89 183 224 173 253 79 26 347 320 243 217 213 208 200 203 200 194 196 198 200 198 197 196 198 200 193 202 211 197 190 192 188 181 180 175
140 158 144 161 168 159 175 172 158 186 194 208 138 209 58 14 6 344 320 243 206 206 203 198 198 197 201 197 196 198 197 200 197 200 204 203 215 206 200 191 199 185 185 185
175 176 333 10 230 182 189 200 198 181 193 179 153 180 114 41 30 4 357 299 217 206 202 202 199 197 198 197 196 196 196 201 199 202 207 204 210 219 214 205 204 208 203 199
172 97 73 53 28 292 153 203 328 118 67 205 144 110 179 11 15 16 12 13 263 210 207 206 197 198 195 196 199 196 198 203 201 205 202 205 210 217 222 213 213 212 210 196
119 129 28 17 307 57 313 103 180 218 176 183 116 92 31 5 3 6 14 11 359 226 211 204 195 200 197 199 198 200 202 202 203 204 205 208 213 218 219 214 213 214 209 207
8 315 68 106 36 357 156 132 67 136 314 182 159 106 21 29 25 21 19 22 29 37 186 209 201 204 198 198 199 202 206 208 209 207 209 210 209 219 216 218 217 217 211 198
3 72 71 92 84 336 48 56 334 235 173 56 11 104 42 57 54 43 36 32 32 43 45 42 20 164 193 205 209 208 210 209 212 210 207 211 204 208 221 217 217 214 221 205
1 35 125 168 188 158 51 34 63 94 331 150 207 128 69 68 57 47 43 33 31 34 36 36 40 30 25 0 223 218 216 216 214 207 207 215 219 210 217 222 216 215 222 226
67 82 352 78 68 78 110 40 34 6 202 140 59 126 74 64 55 49 45 45 35 31 30 26 25 22 13 11 11 7 284 248 225 212 209 209 207 213 218 221 218 217 213 218
32 91 91 76 78 95 128 56 28 45 96 304 136 122 68 61 64 50 47 43 42 26 21 16 12 9 8 2 360 359 1 348 276 241 229 223 218 210 211 215 217 218 220 217
15 110 125 84 25 2 278 326 282 237 167 153 147 122 0 47 43 36 27 24 32 24 17 7 358 360 360 353 342 343 345 343 327 271 246 239 230 223 218 214 213 215 217 220
50 127 169 141 12 314 250 359 49 105 59 338 196 64 11 350 351 349 346 1 12 7 1 358 352 344 345 341 337 331 328 326 328 300 259 244 235 228 223 222 219 219 218 221
120 102 76 135 147 217 68 47 359 86 77 34 81 48 19 346 323 306 329 19 3 350 348 343 340 336 334 330 329 327 325 327 324 340 306 255 237 236 230 226 223 219 220 220
351 125 121 190 201 80 228 59 23 316 103 34 7 355 354 344 309 99 100 6 344 336 330 328 327 326 323 324 327 326 326 326 336 329 340 308 248 242 237 232 230 227 225 224
70 56 245 184 217 208 92 122 121 174 214 76 25 360 347 346 310 36 337 332 326 325 323 320 322 318 321 326 324 322 319 321 318 324 323 324 313 285 251 242 239 234 230 232
136 75 186 189 254 195 145 119 160 225 84 118 347 345 340 322 307 302 303 304 308 311 315 317 313 315 318 321 320 313 311 308 309 311 297 305 311 295 263 275 258 238 235 237
184 160 165 146 215 248 159 146 219 84 137 148 234 332 316 313 314 312 309 308 311 312 311 307 305 311 317 320 317 310 305 305 303 304 298 305 305 297 278 269 263 253 233 232
210 218 196 217 227 115 168 156 111 144 143 147 263 303 303 310 323 320 315 313 313 312 311 306 302 302 307 313 317 310 310 309 305 300 293 297 293 284 290 273 258 251 246 230
214 174 227 228 195 220 211 218 212 190 183 188 230 269 289 301 323 318 321 319 315 315 310 307 301 293 295 301 305 305 307 305 292 291 286 285 283 283 284 280 269 248 243 230
187 165 200 244 244 206 229 211 203 202 199 217 245 267 279 282 299 319 320 316 311 308 302 300 295 293 290 295 297 301 303 301 289 278 277 271 279 283 280 270 270 261 243 251
187 187 189 224 192 180 149 180 192 194 205 224 243 259 259 264 286 299 300 296 294 301 300 294 292 292 295 297 297 296 296 296 287 277 267 262 274 281 280 277 273 245 244 259